Tracking 21094 objects as of 12-Aug-2020
HD Live streaming from Space Station
objects crossing your sky now
Track the most recent launched group of Starlink satellites

KX-09

Track KX-09 now!
10-day predictions


NORAD ID: 44520
Int'l Code: 2019-058B
Perigee: 598.8 km
Apogee: 614.1 km
Inclination: 97.8 °
Period: 96.7 minutes
Semi major axis: 6977 km
RCS: Unknown
Launch date: August 30, 2019
Source: People's Republic of China (PRC)
Launch site: Jiuquan Satellite Launch Center, China (JSC)
aabbcc
Your satellite tracking list
Your tracking list is empty




NASA's NSSDC Master Catalog

Two Line Element Set (TLE):
1 44520U 19058B   20225.07415114  .00000201  00000-0  26878-4 0  9990
2 44520  97.7892 230.6779 0010968 219.7495 140.2912 14.89555670 51672
Source of the keplerian elements: AFSPC